{"data":{"norad_id":64115,"intl_designator":"2025-110V","name":"STARLINK-34067","alt_names":[],"object_type":"PAYLOAD","status":"ACTIVE","operator":null,"country":"US","launch_date":"2025-05-23","launch_site_code":"AFWTR","launch_vehicle":null,"mission":null,"orbit_class":"UNKNOWN","rcs_meters":null,"size_class":null,"mass_kg":null,"dimensions":null,"purposes":["comms"],"wikipedia_slug":null,"has_3d_model":false,"image_url":null,"decayed_at":null,"tle_current":{"epoch":"2026-09-20T07:43:42.575520Z","epoch_age_seconds":155754,"freshness":"FRESH","line1":"1 64115U 25110V   26263.32202055  .00033592  00000+0  73640-3 0  9998","line2":"2 64115  53.1582 196.1922 0006618  75.0330 285.1409 15.43782313 75774","mean_motion":15.43782313,"eccentricity":0.0006618,"inclination_deg":53.1582,"raan_deg":196.1922,"arg_perigee_deg":75.033,"mean_anomaly_deg":285.1409,"bstar":0.0007364,"rev_number":7577,"period_min":93.277399791016,"perigee_km":430.44944947628,"apogee_km":439.46726248946,"semimajor_km":6813.0953559829,"source":"CELESTRAK","updated_at":"2026-09-21T09:00:35.230493Z"}}}